Minneapolis Flying Cloud, MN

8:00 PM CDT on April 29, 2017 (GMT -0500)
Flying Cloud

Weather History for KFCM - June, 2013

Change the Weather History Date:

Thursday, June 27, 2013

  Actual Average Record
Temperature  
Mean Temperature 78 °F -  
Max Temperature 88 °F 79 °F 93 °F (2012)
Min Temperature 69 °F 59 °F 52 °F (2000)
Cooling Degree Days 13    
Growing Degree Days 28 (Base 50)    
Moisture  
Dew Point 60 °F    
Average Humidity 56    
Maximum Humidity 87    
Minimum Humidity 29    
Precipitation  
Precipitation 0.00 in - - ()
Sea Level Pressure  
Sea Level Pressure 29.79 in    
Wind  
Wind Speed 6 mph (WNW)    
Max Wind Speed 23 mph    
Max Gust Speed 32 mph    
Visibility 10 miles    
Events      
Averages and records for this station are not official NWS values.
T = Trace of Precipitation, MM = Missing Value Source: NWS Daily Summary

Daily Weather History Graph

Daily Weather History Graph

Search for Another Location

Airport or City:

Trip Planner

Search our weather history database for the weather conditions in past years. The results will help you decide how hot, cold, wet, or windy it might be!

Date:

Astronomy

Jun. 27, 2013 Rise Set
Actual Time 5:29 AM CDT 9:04 PM CDT
Civil Twilight 4:52 AM CDT 9:41 PM CDT
Nautical Twilight 4:03 AM CDT 10:30 PM CDT
Astronomical Twilight 2:58 AM CDT 11:34 PM CDT
Moon 11:46 PM CDT (6/27) 10:45 AM CDT (6/27)
Length of Visible Light 16h 48m
Length of Day
15h 34m
Waning Gibbous, 76% of the Moon is Illuminated
Jun 27
Waning Gibbous
Jun 29
Last Quarter
Jul 8
New
Jul 15
First Quarter
Jul 22
Full

Hourly Weather History & Observations

Time (CDT) Temp. Heat Index Dew Point Humidity Pressure Visibility Wind Dir Wind Speed Gust Speed Precip Events Conditions
12:53 AM 73.9 °F - 64.0 °F 71% 29.80 in 10.0 mi Calm Calm - N/A   Clear
1:53 AM 70.0 °F - 64.9 °F 84% 29.79 in 10.0 mi Calm Calm - N/A   Clear
2:53 AM 70.0 °F - 66.0 °F 87% 29.79 in 10.0 mi Calm Calm - N/A   Clear
3:53 AM 70.0 °F - 64.9 °F 84% 29.78 in 10.0 mi Calm Calm - N/A   Scattered Clouds
4:53 AM 69.1 °F - 64.9 °F 87% 29.79 in 10.0 mi West 3.5 mph - N/A   Partly Cloudy
5:53 AM 70.0 °F - 64.9 °F 84% 29.81 in 10.0 mi WSW 5.8 mph - N/A   Mostly Cloudy
6:53 AM 72.0 °F - 66.0 °F 81% 29.80 in 10.0 mi West 3.5 mph - N/A   Scattered Clouds
7:53 AM 75.9 °F - 64.9 °F 69% 29.79 in 10.0 mi West 5.8 mph - N/A   Clear
8:53 AM 78.1 °F - 64.0 °F 62% 29.80 in 10.0 mi WNW 10.4 mph - N/A   Clear
9:53 AM 81.0 °F 82.2 °F 63.0 °F 54% 29.79 in 10.0 mi NW 9.2 mph 18.4 mph N/A   Clear
10:53 AM 82.0 °F 83.1 °F 63.0 °F 52% 29.79 in 10.0 mi West 9.2 mph - N/A   Clear
11:53 AM 84.9 °F 84.4 °F 59.0 °F 41% 29.80 in 10.0 mi WNW 13.8 mph 23.0 mph N/A   Clear
12:53 PM 86.0 °F 84.7 °F 55.9 °F 36% 29.80 in 10.0 mi NW 19.6 mph 27.6 mph N/A   Clear
1:53 PM 87.1 °F 84.9 °F 53.1 °F 31% 29.81 in 10.0 mi WNW 18.4 mph 32.2 mph N/A   Clear
2:53 PM 86.0 °F 84.2 °F 54.0 °F 33% 29.80 in 10.0 mi WNW 20.7 mph 31.1 mph N/A   Clear
3:53 PM 87.1 °F - 51.1 °F 29% 29.80 in 10.0 mi WNW 23.0 mph 29.9 mph N/A   Clear
4:53 PM 87.1 °F - 52.0 °F 30% 29.80 in 10.0 mi WNW 20.7 mph 27.6 mph N/A   Clear
5:53 PM 86.0 °F 84.2 °F 54.0 °F 33% 29.79 in 10.0 mi WNW 13.8 mph 25.3 mph N/A   Partly Cloudy
6:53 PM 84.0 °F 82.9 °F 55.0 °F 37% 29.79 in 10.0 mi NW 11.5 mph - N/A   Clear
7:53 PM 82.0 °F 81.6 °F 55.9 °F 41% 29.79 in 10.0 mi WNW 8.1 mph - N/A   Clear
8:53 PM 78.1 °F - 57.0 °F 48% 29.78 in 10.0 mi West 4.6 mph - N/A   Clear
9:53 PM 73.9 °F - 57.9 °F 57% 29.78 in 10.0 mi West 3.5 mph - N/A   Clear
10:53 PM 75.0 °F - 57.9 °F 55% 29.78 in 10.0 mi WNW 6.9 mph - N/A   Clear
11:53 PM 75.9 °F - 55.9 °F 50% 29.78 in 10.0 mi WNW 6.9 mph - N/A   Clear